User: anonymous   Login
Location: Unspecified
(48.7670°N, 0.0000°E)
Time: 17:07:35
(UTC+00:00)
Language:

Vanguard 2 Rocket - Orbit

View from above orbital plane
View from above orbital plane
View from above satellite
View from above satellite

Ground track
Ground track

The orbit data is extracted from the following two-line orbital elements,

1    12U 59001B   19167.38645522  .00000140  00000-0  68130-4 0  9994
2    12  32.9058 195.2265 1666163 306.1336  39.6036 11.44264271480497
Epoch (UTC): 16 June 2019 09:16:29
Eccentricity: 0.1666163
inclination: 32.9058°
perigee height: 554 km
apogee height: 3326 km
right ascension of ascending node: 195.2265°
argument of perigee: 306.1336°
revolutions per day: 11.44264271
mean anomaly at epoch: 39.6036°
orbit number at epoch: 48049

The dashed part of the orbit path shows where the satellite is in the earth's shadow,  

DLR